Accueil
METAR-TAF:

METAR-TAF

Aéroports :

Turin, Italie

Bric della Croce

latitude: 45-02N, longitude: 007-44E, altitude: 709 m

Observation

Le bulletin a été fait il y a 1 heure et 21 minutes, à 09:55 UTC
Vent calme
Température 7°C
Humidité 100%
Pression 1013 hPa
Visibilité: 1500 m
Quelques nuages à une hauteur de 2000 ft
Nuages épars à une hauteur de 4000 ft
brume

METAR: LIMK 250955Z 00000KT 1500 BR FEW020 SCT040 07/07 Q1013 RMK BKN VAL FOSCHIA VIS MIN 1500

Heure: 12:16 (11:16 UTC)


TAF: absent

Observations et prévisions météorologiques de plus de 4000 aéroports (messages METAR et TAF).

Les stations disponibles sont représentées par des disques jaunes et rouges sur la carte.

Passer la souris dessus pour voir le nom de la station.

Cliquer dessus pour voir les observations et prévisions météorologiques.

Pour changer de carte: cliquez sur les boutons verts avec une croix noire pour zoomer, sur le bouton vert avec un tiret pour effectuer un zoom arrière, ou sur les flèches vertes pour les cartes adjacentes.


METAR-TAF: